This is the latest recevied weather packets stored in our database for station/object KI4BIY. If no packets are shown the sender has not sent any weather packets the latest 1 day(s).
| Time | Temp. | Humidity | Pressure | Rain* | Wind** | Luminosity | Snow |
|---|---|---|---|---|---|---|---|
| 1778021055 | 18.33° C | 99% | 1006.3 hPa | 0 mm | 0.45 m/s, 233° | 18 W/m² | - |
| 1778020752 | 18.33° C | 99% | 1006.3 hPa | 0 mm | 0 m/s | 19 W/m² | - |
| 1778020449 | 18.33° C | 99% | 1006.4 hPa | 0 mm | 0 m/s | 33 W/m² | - |
| 1778020145 | 18.33° C | 99% | 1006.3 hPa | 0 mm | 0 m/s | 32 W/m² | - |
| 1778019842 | 18.33° C | 99% | 1006.3 hPa | 0 mm | 0 m/s | 20 W/m² | - |
| 1778019538 | 18.33° C | 99% | 1006.4 hPa | 0 mm | 0 m/s | 24 W/m² | - |
| 1778019235 | 18.33° C | 99% | 1006.2 hPa | 0 mm | 0 m/s | 22 W/m² | - |
| 1778018932 | 18.33° C | 99% | 1006.3 hPa | 0 mm | 0 m/s | 32 W/m² | - |
| 1778018629 | 17.78° C | 99% | 1006.4 hPa | 0 mm | 0 m/s | 31 W/m² | - |
| 1778018327 | 17.78° C | 99% | 1006.4 hPa | 0 mm | 0 m/s | 28 W/m² | - |
| 1778018025 | 17.78° C | 99% | 1006.6 hPa | 0 mm | 0 m/s | 23 W/m² | - |
| 1778017723 | 17.78° C | 99% | 1006.9 hPa | 0 mm | 0 m/s | 23 W/m² | - |
| 1778017420 | 17.78° C | 99% | 1006.6 hPa | 0 mm | 0 m/s | 19 W/m² | - |
| 1778017117 | 17.78° C | 99% | 1006.9 hPa | 0 mm | 0.89 m/s, 264° | 24 W/m² | - |
| 1778016815 | 17.78° C | 99% | 1006.9 hPa | 0 mm | 0.89 m/s, 170° | 31 W/m² | - |
| 1778016511 | 17.78° C | 99% | 1006.7 hPa | 0 mm | 0.89 m/s, 218° | 24 W/m² | - |
| 1778016208 | 17.78° C | 99% | 1007 hPa | 0 mm | 0.45 m/s, 266° | 25 W/m² | - |
| 1778015904 | 17.78° C | 99% | 1007.1 hPa | 0 mm | 0.89 m/s, 171° | 23 W/m² | - |
| 1778015602 | 17.78° C | 99% | 1007.2 hPa | 0 mm | 0.89 m/s, 226° | 16 W/m² | - |
| 1778015298 | 17.78° C | 99% | 1007.3 hPa | 0 mm | 0.45 m/s, 213° | 16 W/m² | - |
| 1778014995 | 17.78° C | 99% | 1007.2 hPa | 0 mm | 0.45 m/s, 192° | 18 W/m² | - |
| 1778014692 | 17.78° C | 99% | 1007.3 hPa | 0 mm | 0.89 m/s, 167° | 25 W/m² | - |
| 1778014390 | 17.78° C | 99% | 1007.5 hPa | 0 mm | 0.45 m/s, 242° | 24 W/m² | - |
| 1778014087 | 17.78° C | 99% | 1007.5 hPa | 0 mm | 0.45 m/s, 263° | 28 W/m² | - |
| 1778013784 | 17.78° C | 99% | 1007.3 hPa | 0 mm | 0.89 m/s, 213° | 29 W/m² | - |
* Rain latest hour (hover to see other rain measurements)
** Current wind speed in m/s (hover to see current wind gust speed)